owner,sensor,date,latitude,longitude,vertical_datum,mass_concentration_of_oxygen_in_sea_water,qcFlag 
SCCF RECON,ioos:station:SCCF:13:1,2010-06-01T00:00:00Z,26.5255,-82.0032,2.356,5.43,1111122 
SCCF RECON,ioos:station:SCCF:13:1,2010-06-01T01:00:00Z,26.5255,-82.0032,2.27,5.49,1111122 
SCCF RECON,ioos:station:SCCF:13:1,2010-06-01T02:00:00Z,26.5255,-82.0032,2.2,5.51,1111122 
SCCF RECON,ioos:station:SCCF:13:1,2010-06-01T03:00:00Z,26.5255,-82.0032,2.13,5.52,1111122 
SCCF RECON,ioos:station:SCCF:13:1,2010-06-01T04:00:00Z,26.5255,-82.0032,2.09,5.2,1111122 
SCCF RECON,ioos:station:SCCF:13:1,2010-06-01T05:00:00Z,26.5255,-82.0032,2.15,5.23,1111122 
SCCF RECON,ioos:station:SCCF:13:1,2010-06-01T06:00:00Z,26.5255,-82.0032,2.25,5.35,1111122 
SCCF RECON,ioos:station:SCCF:13:1,2010-06-01T07:00:00Z,26.5255,-82.0032,2.32,4.9,1111122 
SCCF RECON,ioos:station:SCCF:13:1,2010-06-01T08:00:00Z,26.5255,-82.0032,2.38,4.72,1111122 
SCCF RECON,ioos:station:SCCF:13:1,2010-06-01T09:00:00Z,26.5255,-82.0032,2.42,4.63,1111122 
SCCF RECON,ioos:station:SCCF:13:1,2010-06-01T10:00:00Z,26.5255,-82.0032,2.453,4.47,1111122 
SCCF RECON,ioos:station:SCCF:13:1,2010-06-01T11:00:00Z,26.5255,-82.0032,2.46,4.65,1111122 
SCCF RECON,ioos:station:SCCF:13:1,2010-06-01T12:00:00Z,26.5255,-82.0032,2.447,4.29,1111122 
SCCF RECON,ioos:station:SCCF:13:1,2010-06-01T13:00:00Z,26.5255,-82.0032,2.42,4.41,1111122 
SCCF RECON,ioos:station:SCCF:13:1,2010-06-01T14:00:00Z,26.5255,-82.0032,2.4,4.37,1111122 
SCCF RECON,ioos:station:SCCF:13:1,2010-06-01T15:00:00Z,26.5255,-82.0032,2.4,4.41,1111122 
SCCF RECON,ioos:station:SCCF:13:1,2010-06-01T16:00:00Z,26.5255,-82.0032,2.46,3.4,1111122 
SCCF RECON,ioos:station:SCCF:13:1,2010-06-01T17:00:00Z,26.5255,-82.0032,2.53,3.29,1111122 
SCCF RECON,ioos:station:SCCF:13:1,2010-06-01T18:00:00Z,26.5255,-82.0032,2.59,5.52,1111122 
SCCF RECON,ioos:station:SCCF:13:1,2010-06-01T19:00:00Z,26.5255,-82.0032,2.626,5.99,1111122 
SCCF RECON,ioos:station:SCCF:13:1,2010-06-01T20:00:00Z,26.5255,-82.0032,2.65,6.12,1111122 
SCCF RECON,ioos:station:SCCF:13:1,2010-06-01T21:00:00Z,26.5255,-82.0032,2.651,6.53,1111122 
SCCF RECON,ioos:station:SCCF:13:1,2010-06-01T22:00:00Z,26.5255,-82.0032,2.586,6.23,1111122 
SCCF RECON,ioos:station:SCCF:13:1,2010-06-01T23:00:00Z,26.5255,-82.0032,2.509,6.59,1111122 
SCCF RECON,ioos:station:SCCF:13:1,2010-06-02T00:00:00Z,26.5255,-82.0032,2.41,5.64,1111122 
SCCF RECON,ioos:station:SCCF:13:1,2010-06-02T01:00:00Z,26.5255,-82.0032,2.339,5.65,1111122 
SCCF RECON,ioos:station:SCCF:13:1,2010-06-02T02:00:00Z,26.5255,-82.0032,2.26,5.8,1111122 
SCCF RECON,ioos:station:SCCF:13:1,2010-06-02T03:00:00Z,26.5255,-82.0032,2.18,5.76,1111122 
SCCF RECON,ioos:station:SCCF:13:1,2010-06-02T04:00:00Z,26.5255,-82.0032,2.12,5.46,1111122 
SCCF RECON,ioos:station:SCCF:13:1,2010-06-02T05:00:00Z,26.5255,-82.0032,2.12,5.31,1111122 
SCCF RECON,ioos:station:SCCF:13:1,2010-06-02T06:00:00Z,26.5255,-82.0032,2.204,5.4,1111122 
SCCF RECON,ioos:station:SCCF:13:1,2010-06-02T07:00:00Z,26.5255,-82.0032,2.29,5.05,1111122 
SCCF RECON,ioos:station:SCCF:13:1,2010-06-02T08:00:00Z,26.5255,-82.0032,2.35,4.91,1111122 
SCCF RECON,ioos:station:SCCF:13:1,2010-06-02T09:00:00Z,26.5255,-82.0032,2.41,4.76,1111122 
SCCF RECON,ioos:station:SCCF:13:1,2010-06-02T10:00:00Z,26.5255,-82.0032,2.46,4.69,1111122 
SCCF RECON,ioos:station:SCCF:13:1,2010-06-02T11:00:00Z,26.5255,-82.0032,2.491,4.57,1111122 
SCCF RECON,ioos:station:SCCF:13:1,2010-06-02T12:00:00Z,26.5255,-82.0032,2.47,4.54,1111122 
SCCF RECON,ioos:station:SCCF:13:1,2010-06-02T13:00:00Z,26.5255,-82.0032,2.44,4.39,1111122 
SCCF RECON,ioos:station:SCCF:13:1,2010-06-02T14:00:00Z,26.5255,-82.0032,2.4,4.35,1111122 
SCCF RECON,ioos:station:SCCF:13:1,2010-06-02T15:00:00Z,26.5255,-82.0032,2.38,4.51,1111122 
SCCF RECON,ioos:station:SCCF:13:1,2010-06-02T16:00:00Z,26.5255,-82.0032,2.384,4.25,1111122 
SCCF RECON,ioos:station:SCCF:13:1,2010-06-02T17:00:00Z,26.5255,-82.0032,2.43,3.4,1111122 
SCCF RECON,ioos:station:SCCF:13:1,2010-06-02T18:00:00Z,26.5255,-82.0032,2.48,3.87,1111122 
SCCF RECON,ioos:station:SCCF:13:1,2010-06-02T19:00:00Z,26.5255,-82.0032,2.525,5.66,1111122 
SCCF RECON,ioos:station:SCCF:13:1,2010-06-02T20:00:00Z,26.5255,-82.0032,2.559,6.66,1111122 
SCCF RECON,ioos:station:SCCF:13:1,2010-06-02T21:00:00Z,26.5255,-82.0032,2.57,6.13,1111122 
SCCF RECON,ioos:station:SCCF:13:1,2010-06-02T22:00:00Z,26.5255,-82.0032,2.56,6.35,1111122 
SCCF RECON,ioos:station:SCCF:13:1,2010-06-02T23:00:00Z,26.5255,-82.0032,2.52,5.6,1111122 
SCCF RECON,ioos:station:SCCF:13:1,2010-06-03T00:00:00Z,26.5255,-82.0032,2.447,5.95,1111122 
SCCF RECON,ioos:station:SCCF:13:1,2010-06-03T01:00:00Z,26.5255,-82.0032,2.37,5.76,1111122 
SCCF RECON,ioos:station:SCCF:13:1,2010-06-03T02:00:00Z,26.5255,-82.0032,2.29,5.89,1111122 
SCCF RECON,ioos:station:SCCF:13:1,2010-06-03T03:00:00Z,26.5255,-82.0032,2.214,5.85,1111122 
SCCF RECON,ioos:station:SCCF:13:1,2010-06-03T04:00:00Z,26.5255,-82.0032,2.15,5.91,1111122 
SCCF RECON,ioos:station:SCCF:13:1,2010-06-03T05:00:00Z,26.5255,-82.0032,2.13,5.57,1111122 
SCCF RECON,ioos:station:SCCF:13:1,2010-06-03T06:00:00Z,26.5255,-82.0032,2.182,5.34,1111122 
SCCF RECON,ioos:station:SCCF:13:1,2010-06-03T07:00:00Z,26.5255,-82.0032,2.275,5.24,1111122 
SCCF RECON,ioos:station:SCCF:13:1,2010-06-03T08:00:00Z,26.5255,-82.0032,2.35,4.5,1111122 
SCCF RECON,ioos:station:SCCF:13:1,2010-06-03T09:00:00Z,26.5255,-82.0032,2.4,4.55,1111122 
SCCF RECON,ioos:station:SCCF:13:1,2010-06-03T10:00:00Z,26.5255,-82.0032,2.47,4.72,1111122 
SCCF RECON,ioos:station:SCCF:13:1,2010-06-03T11:00:00Z,26.5255,-82.0032,2.515,4.68,1111122 
SCCF RECON,ioos:station:SCCF:13:1,2010-06-03T12:00:00Z,26.5255,-82.0032,2.54,4.76,1111122 
SCCF RECON,ioos:station:SCCF:13:1,2010-06-03T13:00:00Z,26.5255,-82.0032,2.56,5.0,1111122 
SCCF RECON,ioos:station:SCCF:13:1,2010-06-03T14:00:00Z,26.5255,-82.0032,2.54,4.73,1111122 
SCCF RECON,ioos:station:SCCF:13:1,2010-06-03T15:00:00Z,26.5255,-82.0032,2.496,4.8,1111122 
SCCF RECON,ioos:station:SCCF:13:1,2010-06-03T16:00:00Z,26.5255,-82.0032,2.45,4.73,1111122 
SCCF RECON,ioos:station:SCCF:13:1,2010-06-03T17:00:00Z,26.5255,-82.0032,2.43,4.78,1111122 
SCCF RECON,ioos:station:SCCF:13:1,2010-06-03T18:00:00Z,26.5255,-82.0032,2.43,4.53,1111122 
SCCF RECON,ioos:station:SCCF:13:1,2010-06-03T19:00:00Z,26.5255,-82.0032,2.5,4.29,1111122 
SCCF RECON,ioos:station:SCCF:13:1,2010-06-03T20:00:00Z,26.5255,-82.0032,2.55,3.91,1111122 
SCCF RECON,ioos:station:SCCF:13:1,2010-06-03T21:00:00Z,26.5255,-82.0032,2.58,4.71,1111122 
SCCF RECON,ioos:station:SCCF:13:1,2010-06-03T22:00:00Z,26.5255,-82.0032,2.58,4.89,1111122 
SCCF RECON,ioos:station:SCCF:13:1,2010-06-03T23:00:00Z,26.5255,-82.0032,2.562,5.12,1111122 
SCCF RECON,ioos:station:SCCF:13:1,2010-06-04T00:00:00Z,26.5255,-82.0032,2.54,5.24,1111122 
SCCF RECON,ioos:station:SCCF:13:1,2010-06-04T01:00:00Z,26.5255,-82.0032,2.484,5.87,1111122 
SCCF RECON,ioos:station:SCCF:13:1,2010-06-04T02:00:00Z,26.5255,-82.0032,2.38,5.52,1111122 
SCCF RECON,ioos:station:SCCF:13:1,2010-06-04T03:00:00Z,26.5255,-82.0032,2.31,5.57,1111122 
SCCF RECON,ioos:station:SCCF:13:1,2010-06-04T04:00:00Z,26.5255,-82.0032,2.27,5.76,1111122 
SCCF RECON,ioos:station:SCCF:13:1,2010-06-04T05:00:00Z,26.5255,-82.0032,2.212,5.79,1111122 
SCCF RECON,ioos:station:SCCF:13:1,2010-06-04T06:00:00Z,26.5255,-82.0032,2.174,5.46,1111122 
SCCF RECON,ioos:station:SCCF:13:1,2010-06-04T07:00:00Z,26.5255,-82.0032,2.23,5.29,1111122 
SCCF RECON,ioos:station:SCCF:13:1,2010-06-04T08:00:00Z,26.5255,-82.0032,2.463,5.01,1111122 
SCCF RECON,ioos:station:SCCF:13:1,2010-06-04T09:00:00Z,26.5255,-82.0032,2.481,4.7,1111122 
SCCF RECON,ioos:station:SCCF:13:1,2010-06-04T10:00:00Z,26.5255,-82.0032,2.47,4.61,1111122 
SCCF RECON,ioos:station:SCCF:13:1,2010-06-04T11:00:00Z,26.5255,-82.0032,2.539,4.53,1111122 
SCCF RECON,ioos:station:SCCF:13:1,2010-06-04T12:00:00Z,26.5255,-82.0032,2.647,4.89,1111122 
SCCF RECON,ioos:station:SCCF:13:1,2010-06-04T13:00:00Z,26.5255,-82.0032,2.66,5.11,1111122 
SCCF RECON,ioos:station:SCCF:13:1,2010-06-04T14:00:00Z,26.5255,-82.0032,2.614,5.1,1111122 
SCCF RECON,ioos:station:SCCF:13:1,2010-06-04T15:00:00Z,26.5255,-82.0032,2.589,5.03,1111122 
SCCF RECON,ioos:station:SCCF:13:1,2010-06-04T16:00:00Z,26.5255,-82.0032,2.59,4.67,1111122 
SCCF RECON,ioos:station:SCCF:13:1,2010-06-04T17:00:00Z,26.5255,-82.0032,2.588,5.18,1111122 
SCCF RECON,ioos:station:SCCF:13:1,2010-06-04T18:00:00Z,26.5255,-82.0032,2.526,5.24,1111122 
SCCF RECON,ioos:station:SCCF:13:1,2010-06-04T19:00:00Z,26.5255,-82.0032,2.482,4.89,1111122 
SCCF RECON,ioos:station:SCCF:13:1,2010-06-04T20:00:00Z,26.5255,-82.0032,2.47,4.96,1111122 
SCCF RECON,ioos:station:SCCF:13:1,2010-06-04T21:00:00Z,26.5255,-82.0032,2.54,5.11,1111122 
SCCF RECON,ioos:station:SCCF:13:1,2010-06-04T22:00:00Z,26.5255,-82.0032,2.583,5.49,1111122 
SCCF RECON,ioos:station:SCCF:13:1,2010-06-04T23:00:00Z,26.5255,-82.0032,2.592,4.28,1111122 
SCCF RECON,ioos:station:SCCF:13:1,2010-06-05T00:00:00Z,26.5255,-82.0032,2.57,4.64,1111122 
SCCF RECON,ioos:station:SCCF:13:1,2010-06-05T01:00:00Z,26.5255,-82.0032,2.53,4.86,1111122 
SCCF RECON,ioos:station:SCCF:13:1,2010-06-05T02:00:00Z,26.5255,-82.0032,2.48,5.62,1111122 
SCCF RECON,ioos:station:SCCF:13:1,2010-06-05T03:00:00Z,26.5255,-82.0032,2.402,5.11,1111122 
SCCF RECON,ioos:station:SCCF:13:1,2010-06-05T04:00:00Z,26.5255,-82.0032,2.34,5.67,1111122 
SCCF RECON,ioos:station:SCCF:13:1,2010-06-05T05:00:00Z,26.5255,-82.0032,2.3,5.86,1111122 
SCCF RECON,ioos:station:SCCF:13:1,2010-06-05T06:00:00Z,26.5255,-82.0032,2.28,5.63,1111122 
SCCF RECON,ioos:station:SCCF:13:1,2010-06-05T07:00:00Z,26.5255,-82.0032,2.28,5.44,1111122 
SCCF RECON,ioos:station:SCCF:13:1,2010-06-05T08:00:00Z,26.5255,-82.0032,2.33,5.17,1111122 
SCCF RECON,ioos:station:SCCF:13:1,2010-06-05T09:00:00Z,26.5255,-82.0032,2.41,4.36,1111122 
SCCF RECON,ioos:station:SCCF:13:1,2010-06-05T10:00:00Z,26.5255,-82.0032,2.47,4.08,1111122 
SCCF RECON,ioos:station:SCCF:13:1,2010-06-05T11:00:00Z,26.5255,-82.0032,2.516,4.08,1111122 
SCCF RECON,ioos:station:SCCF:13:1,2010-06-05T12:00:00Z,26.5255,-82.0032,2.58,4.38,1111122 
SCCF RECON,ioos:station:SCCF:13:1,2010-06-05T13:00:00Z,26.5255,-82.0032,2.64,4.38,1111122 
SCCF RECON,ioos:station:SCCF:13:1,2010-06-05T14:00:00Z,26.5255,-82.0032,2.66,4.5,1111122 
SCCF RECON,ioos:station:SCCF:13:1,2010-06-05T15:00:00Z,26.5255,-82.0032,2.588,4.33,1111122 
SCCF RECON,ioos:station:SCCF:13:1,2010-06-05T16:00:00Z,26.5255,-82.0032,2.525,4.35,1111122 
SCCF RECON,ioos:station:SCCF:13:1,2010-06-05T17:00:00Z,26.5255,-82.0032,2.432,4.49,1111122 
SCCF RECON,ioos:station:SCCF:13:1,2010-06-05T18:00:00Z,26.5255,-82.0032,2.377,4.98,1111122 
SCCF RECON,ioos:station:SCCF:13:1,2010-06-05T19:00:00Z,26.5255,-82.0032,2.356,5.46,1111122 
SCCF RECON,ioos:station:SCCF:13:1,2010-06-05T20:00:00Z,26.5255,-82.0032,2.36,5.67,1111122 
SCCF RECON,ioos:station:SCCF:13:1,2010-06-05T21:00:00Z,26.5255,-82.0032,2.4,4.98,1111122 
SCCF RECON,ioos:station:SCCF:13:1,2010-06-05T22:00:00Z,26.5255,-82.0032,2.456,4.94,1111122 
SCCF RECON,ioos:station:SCCF:13:1,2010-06-05T23:00:00Z,26.5255,-82.0032,2.49,4.59,1111122 
SCCF RECON,ioos:station:SCCF:13:1,2010-06-06T00:00:00Z,26.5255,-82.0032,2.5,4.95,1111122 
SCCF RECON,ioos:station:SCCF:13:1,2010-06-06T01:00:00Z,26.5255,-82.0032,2.499,4.3,1111122 
SCCF RECON,ioos:station:SCCF:13:1,2010-06-06T02:00:00Z,26.5255,-82.0032,2.49,3.85,1111122 
SCCF RECON,ioos:station:SCCF:13:1,2010-06-06T03:00:00Z,26.5255,-82.0032,2.45,5.0,1111122 
SCCF RECON,ioos:station:SCCF:13:1,2010-06-06T04:00:00Z,26.5255,-82.0032,2.4,5.41,1111122 
SCCF RECON,ioos:station:SCCF:13:1,2010-06-06T05:00:00Z,26.5255,-82.0032,2.34,5.28,1111122 
SCCF RECON,ioos:station:SCCF:13:1,2010-06-06T06:00:00Z,26.5255,-82.0032,2.27,5.08,1111122 
SCCF RECON,ioos:station:SCCF:13:1,2010-06-06T07:00:00Z,26.5255,-82.0032,2.24,5.66,1111122 
SCCF RECON,ioos:station:SCCF:13:1,2010-06-06T08:00:00Z,26.5255,-82.0032,2.25,5.72,1111122 
SCCF RECON,ioos:station:SCCF:13:1,2010-06-06T09:00:00Z,26.5255,-82.0032,2.31,5.07,1111122 
SCCF RECON,ioos:station:SCCF:13:1,2010-06-06T10:00:00Z,26.5255,-82.0032,2.4,4.08,1111122 
SCCF RECON,ioos:station:SCCF:13:1,2010-06-06T11:00:00Z,26.5255,-82.0032,2.487,3.89,1111122 
SCCF RECON,ioos:station:SCCF:13:1,2010-06-06T12:00:00Z,26.5255,-82.0032,2.529,4.04,1111122 
SCCF RECON,ioos:station:SCCF:13:1,2010-06-06T13:00:00Z,26.5255,-82.0032,2.538,4.09,1111122 
SCCF RECON,ioos:station:SCCF:13:1,2010-06-06T14:00:00Z,26.5255,-82.0032,2.547,4.03,1111122 
SCCF RECON,ioos:station:SCCF:13:1,2010-06-06T15:00:00Z,26.5255,-82.0032,2.551,4.32,1111122 
SCCF RECON,ioos:station:SCCF:13:1,2010-06-06T16:00:00Z,26.5255,-82.0032,2.511,3.98,1111122 
SCCF RECON,ioos:station:SCCF:13:1,2010-06-06T17:00:00Z,26.5255,-82.0032,2.42,5.11,1111122 
SCCF RECON,ioos:station:SCCF:13:1,2010-06-06T18:00:00Z,26.5255,-82.0032,2.321,4.58,1111122 
SCCF RECON,ioos:station:SCCF:13:1,2010-06-06T19:00:00Z,26.5255,-82.0032,2.254,5.25,1111122 
SCCF RECON,ioos:station:SCCF:13:1,2010-06-06T20:00:00Z,26.5255,-82.0032,2.196,5.62,1111122 
SCCF RECON,ioos:station:SCCF:13:1,2010-06-06T21:00:00Z,26.5255,-82.0032,2.194,5.87,1111122 
SCCF RECON,ioos:station:SCCF:13:1,2010-06-06T22:00:00Z,26.5255,-82.0032,2.25,6.04,1111122 
SCCF RECON,ioos:station:SCCF:13:1,2010-06-06T23:00:00Z,26.5255,-82.0032,2.34,5.5,1111122 
SCCF RECON,ioos:station:SCCF:13:1,2010-06-07T00:00:00Z,26.5255,-82.0032,2.4,4.82,1111122 
SCCF RECON,ioos:station:SCCF:13:1,2010-06-07T01:00:00Z,26.5255,-82.0032,2.443,4.96,1111122 
SCCF RECON,ioos:station:SCCF:13:1,2010-06-07T02:00:00Z,26.5255,-82.0032,2.49,5.25,1111122 
SCCF RECON,ioos:station:SCCF:13:1,2010-06-07T03:00:00Z,26.5255,-82.0032,2.5,4.74,1111122 
SCCF RECON,ioos:station:SCCF:13:1,2010-06-07T04:00:00Z,26.5255,-82.0032,2.46,4.72,1111122 
SCCF RECON,ioos:station:SCCF:13:1,2010-06-07T05:00:00Z,26.5255,-82.0032,2.39,5.22,1111122 
SCCF RECON,ioos:station:SCCF:13:1,2010-06-07T06:00:00Z,26.5255,-82.0032,2.34,4.47,1111122 
SCCF RECON,ioos:station:SCCF:13:1,2010-06-07T07:00:00Z,26.5255,-82.0032,2.33,4.45,1111122 
SCCF RECON,ioos:station:SCCF:13:1,2010-06-07T08:00:00Z,26.5255,-82.0032,2.33,4.39,1111122 
SCCF RECON,ioos:station:SCCF:13:1,2010-06-07T09:00:00Z,26.5255,-82.0032,2.32,4.3,1111122 
SCCF RECON,ioos:station:SCCF:13:1,2010-06-07T10:00:00Z,26.5255,-82.0032,2.36,3.95,1111122 
SCCF RECON,ioos:station:SCCF:13:1,2010-06-07T11:00:00Z,26.5255,-82.0032,2.45,3.86,1111122 
SCCF RECON,ioos:station:SCCF:13:1,2010-06-07T12:00:00Z,26.5255,-82.0032,2.53,3.89,1111122 
SCCF RECON,ioos:station:SCCF:13:1,2010-06-07T13:00:00Z,26.5255,-82.0032,2.57,4.69,1111122 
SCCF RECON,ioos:station:SCCF:13:1,2010-06-07T14:00:00Z,26.5255,-82.0032,2.591,4.4,1111122 
SCCF RECON,ioos:station:SCCF:13:1,2010-06-07T15:00:00Z,26.5255,-82.0032,2.6,4.63,1111122 
SCCF RECON,ioos:station:SCCF:13:1,2010-06-07T16:00:00Z,26.5255,-82.0032,2.548,3.98,1111122 
SCCF RECON,ioos:station:SCCF:13:1,2010-06-07T17:00:00Z,26.5255,-82.0032,2.461,4.58,1111122 
SCCF RECON,ioos:station:SCCF:13:1,2010-06-07T18:00:00Z,26.5255,-82.0032,2.347,4.64,1111122 
SCCF RECON,ioos:station:SCCF:13:1,2010-06-07T19:00:00Z,26.5255,-82.0032,2.268,5.21,1111122 
SCCF RECON,ioos:station:SCCF:13:1,2010-06-07T20:00:00Z,26.5255,-82.0032,2.202,5.44,1111122 
SCCF RECON,ioos:station:SCCF:13:1,2010-06-07T21:00:00Z,26.5255,-82.0032,2.15,5.52,1111122 
SCCF RECON,ioos:station:SCCF:13:1,2010-06-07T22:00:00Z,26.5255,-82.0032,2.13,5.59,1111122 
SCCF RECON,ioos:station:SCCF:13:1,2010-06-07T23:00:00Z,26.5255,-82.0032,2.188,5.78,1111122 
SCCF RECON,ioos:station:SCCF:13:1,2010-06-08T00:00:00Z,26.5255,-82.0032,2.286,5.45,1111122 
SCCF RECON,ioos:station:SCCF:13:1,2010-06-08T01:00:00Z,26.5255,-82.0032,2.35,5.22,1111122 
SCCF RECON,ioos:station:SCCF:13:1,2010-06-08T02:00:00Z,26.5255,-82.0032,2.4,4.83,1111122 
SCCF RECON,ioos:station:SCCF:13:1,2010-06-08T03:00:00Z,26.5255,-82.0032,2.45,5.24,1111122 
SCCF RECON,ioos:station:SCCF:13:1,2010-06-08T04:00:00Z,26.5255,-82.0032,2.46,5.32,1111122 
SCCF RECON,ioos:station:SCCF:13:1,2010-06-08T05:00:00Z,26.5255,-82.0032,2.449,4.85,1111122 
SCCF RECON,ioos:station:SCCF:13:1,2010-06-08T06:00:00Z,26.5255,-82.0032,2.41,4.39,1111122 
SCCF RECON,ioos:station:SCCF:13:1,2010-06-08T07:00:00Z,26.5255,-82.0032,2.39,4.92,1111122 
SCCF RECON,ioos:station:SCCF:13:1,2010-06-08T08:00:00Z,26.5255,-82.0032,2.38,4.86,1111122 
SCCF RECON,ioos:station:SCCF:13:1,2010-06-08T09:00:00Z,26.5255,-82.0032,2.37,4.64,1111122 
SCCF RECON,ioos:station:SCCF:13:1,2010-06-08T10:00:00Z,26.5255,-82.0032,2.39,1.46,1111122 
SCCF RECON,ioos:station:SCCF:13:1,2010-06-08T11:00:00Z,26.5255,-82.0032,2.46,3.5,1111122 
SCCF RECON,ioos:station:SCCF:13:1,2010-06-08T12:00:00Z,26.5255,-82.0032,2.53,3.89,1111122 
SCCF RECON,ioos:station:SCCF:13:1,2010-06-08T13:00:00Z,26.5255,-82.0032,2.59,3.78,1111122 
SCCF RECON,ioos:station:SCCF:13:1,2010-06-08T14:00:00Z,26.5255,-82.0032,2.65,4.19,1111122 
SCCF RECON,ioos:station:SCCF:13:1,2010-06-08T15:00:00Z,26.5255,-82.0032,2.68,4.59,1111122 
SCCF RECON,ioos:station:SCCF:13:1,2010-06-08T16:00:00Z,26.5255,-82.0032,2.66,4.65,1111122 
SCCF RECON,ioos:station:SCCF:13:1,2010-06-08T17:00:00Z,26.5255,-82.0032,2.56,4.1,1111122 
SCCF RECON,ioos:station:SCCF:13:1,2010-06-08T18:00:00Z,26.5255,-82.0032,2.426,4.48,1111122 
SCCF RECON,ioos:station:SCCF:13:1,2010-06-08T19:00:00Z,26.5255,-82.0032,2.32,4.64,1111122 
SCCF RECON,ioos:station:SCCF:13:1,2010-06-08T20:00:00Z,26.5255,-82.0032,2.235,5.1,1111122 
SCCF RECON,ioos:station:SCCF:13:1,2010-06-08T21:00:00Z,26.5255,-82.0032,2.171,5.03,1111122 
SCCF RECON,ioos:station:SCCF:13:1,2010-06-08T22:00:00Z,26.5255,-82.0032,2.111,5.16,1111122 
SCCF RECON,ioos:station:SCCF:13:1,2010-06-08T23:00:00Z,26.5255,-82.0032,2.1,5.02,1111122 
SCCF RECON,ioos:station:SCCF:13:1,2010-06-09T00:00:00Z,26.5255,-82.0032,2.18,5.11,1111122 
SCCF RECON,ioos:station:SCCF:13:1,2010-06-09T01:00:00Z,26.5255,-82.0032,2.31,5.23,1111122 
SCCF RECON,ioos:station:SCCF:13:1,2010-06-09T02:00:00Z,26.5255,-82.0032,2.32,4.73,1111122 
SCCF RECON,ioos:station:SCCF:13:1,2010-06-09T03:00:00Z,26.5255,-82.0032,2.36,4.49,1111122 
SCCF RECON,ioos:station:SCCF:13:1,2010-06-09T04:00:00Z,26.5255,-82.0032,2.43,4.41,1111122 
SCCF RECON,ioos:station:SCCF:13:1,2010-06-09T05:00:00Z,26.5255,-82.0032,2.431,4.5,1111122 
SCCF RECON,ioos:station:SCCF:13:1,2010-06-09T06:00:00Z,26.5255,-82.0032,2.4,4.29,1111122 
SCCF RECON,ioos:station:SCCF:13:1,2010-06-09T07:00:00Z,26.5255,-82.0032,2.38,4.1,1111122 
SCCF RECON,ioos:station:SCCF:13:1,2010-06-09T08:00:00Z,26.5255,-82.0032,2.295,3.95,1111122 
SCCF RECON,ioos:station:SCCF:13:1,2010-06-09T09:00:00Z,26.5255,-82.0032,2.248,3.95,1111122 
SCCF RECON,ioos:station:SCCF:13:1,2010-06-09T10:00:00Z,26.5255,-82.0032,2.257,4.36,1111122 
SCCF RECON,ioos:station:SCCF:13:1,2010-06-09T11:00:00Z,26.5255,-82.0032,2.38,3.04,1111122 
SCCF RECON,ioos:station:SCCF:13:1,2010-06-09T12:00:00Z,26.5255,-82.0032,2.52,3.8,1111122 
SCCF RECON,ioos:station:SCCF:13:1,2010-06-09T13:00:00Z,26.5255,-82.0032,2.603,4.17,1111122 
SCCF RECON,ioos:station:SCCF:13:1,2010-06-09T14:00:00Z,26.5255,-82.0032,2.65,4.33,1111122 
SCCF RECON,ioos:station:SCCF:13:1,2010-06-09T15:00:00Z,26.5255,-82.0032,2.69,4.5,1111122 
SCCF RECON,ioos:station:SCCF:13:1,2010-06-09T16:00:00Z,26.5255,-82.0032,2.676,4.82,1111122 
SCCF RECON,ioos:station:SCCF:13:1,2010-06-09T17:00:00Z,26.5255,-82.0032,2.599,4.78,1111122 
SCCF RECON,ioos:station:SCCF:13:1,2010-06-09T18:00:00Z,26.5255,-82.0032,2.492,5.15,1111122 
SCCF RECON,ioos:station:SCCF:13:1,2010-06-09T19:00:00Z,26.5255,-82.0032,2.39,4.83,1111122 
SCCF RECON,ioos:station:SCCF:13:1,2010-06-09T20:00:00Z,26.5255,-82.0032,2.29,5.67,1111122 
SCCF RECON,ioos:station:SCCF:13:1,2010-06-09T21:00:00Z,26.5255,-82.0032,2.192,6.14,1111122 
SCCF RECON,ioos:station:SCCF:13:1,2010-06-09T22:00:00Z,26.5255,-82.0032,2.1,5.92,1111122 
SCCF RECON,ioos:station:SCCF:13:1,2010-06-09T23:00:00Z,26.5255,-82.0032,2.044,5.71,1111122 
SCCF RECON,ioos:station:SCCF:13:1,2010-06-10T00:00:00Z,26.5255,-82.0032,2.07,5.74,1111122 
SCCF RECON,ioos:station:SCCF:13:1,2010-06-10T01:00:00Z,26.5255,-82.0032,2.18,5.76,1111122 
SCCF RECON,ioos:station:SCCF:13:1,2010-06-10T02:00:00Z,26.5255,-82.0032,2.29,5.45,1111122 
SCCF RECON,ioos:station:SCCF:13:1,2010-06-10T03:00:00Z,26.5255,-82.0032,2.365,5.16,1111122 
SCCF RECON,ioos:station:SCCF:13:1,2010-06-10T04:00:00Z,26.5255,-82.0032,2.408,5.4,1111122 
SCCF RECON,ioos:station:SCCF:13:1,2010-06-10T05:00:00Z,26.5255,-82.0032,2.453,5.51,1111122 
SCCF RECON,ioos:station:SCCF:13:1,2010-06-10T06:00:00Z,26.5255,-82.0032,2.46,5.41,1111122 
SCCF RECON,ioos:station:SCCF:13:1,2010-06-10T07:00:00Z,26.5255,-82.0032,2.41,5.06,1111122 
SCCF RECON,ioos:station:SCCF:13:1,2010-06-10T08:00:00Z,26.5255,-82.0032,2.39,4.71,1111122 
SCCF RECON,ioos:station:SCCF:13:1,2010-06-10T09:00:00Z,26.5255,-82.0032,2.36,4.74,1111122 
SCCF RECON,ioos:station:SCCF:13:1,2010-06-10T10:00:00Z,26.5255,-82.0032,2.33,4.69,1111122 
SCCF RECON,ioos:station:SCCF:13:1,2010-06-10T11:00:00Z,26.5255,-82.0032,2.36,4.46,1111122 
SCCF RECON,ioos:station:SCCF:13:1,2010-06-10T12:00:00Z,26.5255,-82.0032,2.457,3.69,1111122 
SCCF RECON,ioos:station:SCCF:13:1,2010-06-10T13:00:00Z,26.5255,-82.0032,2.55,4.82,1111122 
SCCF RECON,ioos:station:SCCF:13:1,2010-06-10T14:00:00Z,26.5255,-82.0032,2.645,5.06,1111122 
SCCF RECON,ioos:station:SCCF:13:1,2010-06-10T15:00:00Z,26.5255,-82.0032,2.7,4.98,1111122 
SCCF RECON,ioos:station:SCCF:13:1,2010-06-10T16:00:00Z,26.5255,-82.0032,2.729,5.19,1111122 
SCCF RECON,ioos:station:SCCF:13:1,2010-06-10T17:00:00Z,26.5255,-82.0032,2.7,5.68,1111122 
SCCF RECON,ioos:station:SCCF:13:1,2010-06-10T18:00:00Z,26.5255,-82.0032,2.6,5.01,1111122 
SCCF RECON,ioos:station:SCCF:13:1,2010-06-10T19:00:00Z,26.5255,-82.0032,2.463,5.43,1111122 
SCCF RECON,ioos:station:SCCF:13:1,2010-06-10T20:00:00Z,26.5255,-82.0032,2.348,5.5,1111122 
SCCF RECON,ioos:station:SCCF:13:1,2010-06-10T21:00:00Z,26.5255,-82.0032,2.26,6.06,1111122 
SCCF RECON,ioos:station:SCCF:13:1,2010-06-10T22:00:00Z,26.5255,-82.0032,2.171,6.36,1111122 
SCCF RECON,ioos:station:SCCF:13:1,2010-06-10T23:00:00Z,26.5255,-82.0032,2.089,6.28,1111122 
SCCF RECON,ioos:station:SCCF:13:1,2010-06-11T00:00:00Z,26.5255,-82.0032,2.043,5.78,1111122 
SCCF RECON,ioos:station:SCCF:13:1,2010-06-11T01:00:00Z,26.5255,-82.0032,2.084,5.47,1111122 
SCCF RECON,ioos:station:SCCF:13:1,2010-06-11T02:00:00Z,26.5255,-82.0032,2.22,5.64,1111122 
SCCF RECON,ioos:station:SCCF:13:1,2010-06-11T03:00:00Z,26.5255,-82.0032,2.33,5.35,1111122 
SCCF RECON,ioos:station:SCCF:13:1,2010-06-11T04:00:00Z,26.5255,-82.0032,2.41,5.33,1111122 
SCCF RECON,ioos:station:SCCF:13:1,2010-06-11T05:00:00Z,26.5255,-82.0032,2.482,5.54,1111122 
SCCF RECON,ioos:station:SCCF:13:1,2010-06-11T06:00:00Z,26.5255,-82.0032,2.519,5.5,1111122 
SCCF RECON,ioos:station:SCCF:13:1,2010-06-11T07:00:00Z,26.5255,-82.0032,2.515,5.45,1111122 
SCCF RECON,ioos:station:SCCF:13:1,2010-06-11T08:00:00Z,26.5255,-82.0032,2.501,5.23,1111122 
SCCF RECON,ioos:station:SCCF:13:1,2010-06-11T09:00:00Z,26.5255,-82.0032,2.46,4.97,1111122 
SCCF RECON,ioos:station:SCCF:13:1,2010-06-11T10:00:00Z,26.5255,-82.0032,2.401,5.07,1111122 
SCCF RECON,ioos:station:SCCF:13:1,2010-06-11T11:00:00Z,26.5255,-82.0032,2.39,4.85,1111122 
SCCF RECON,ioos:station:SCCF:13:1,2010-06-11T12:00:00Z,26.5255,-82.0032,2.46,4.35,1111122 
SCCF RECON,ioos:station:SCCF:13:1,2010-06-11T13:00:00Z,26.5255,-82.0032,2.58,4.33,1111122 
SCCF RECON,ioos:station:SCCF:13:1,2010-06-11T14:00:00Z,26.5255,-82.0032,2.689,5.42,1111122 
SCCF RECON,ioos:station:SCCF:13:1,2010-06-11T15:00:00Z,26.5255,-82.0032,2.76,5.23,1111122 
SCCF RECON,ioos:station:SCCF:13:1,2010-06-11T16:00:00Z,26.5255,-82.0032,2.81,5.35,1111122 
SCCF RECON,ioos:station:SCCF:13:1,2010-06-11T17:00:00Z,26.5255,-82.0032,2.82,5.7,1111122 
SCCF RECON,ioos:station:SCCF:13:1,2010-06-11T18:00:00Z,26.5255,-82.0032,2.77,5.92,1111122 
SCCF RECON,ioos:station:SCCF:13:1,2010-06-11T19:00:00Z,26.5255,-82.0032,2.65,5.7,1111122 
SCCF RECON,ioos:station:SCCF:13:1,2010-06-11T20:00:00Z,26.5255,-82.0032,2.51,6.0,1111122 
SCCF RECON,ioos:station:SCCF:13:1,2010-06-11T21:00:00Z,26.5255,-82.0032,2.412,5.94,1111122 